TimeCST,TemperatureF,Dew PointF,Humidity,Sea Level PressureIn,VisibilityMPH,Wind Direction,Wind SpeedMPH,Gust SpeedMPH,PrecipitationIn,Events,Conditions,WindDirDegrees,DateUTC
12:15 AM,-4.0,-14.8,60,30.25,10.0,WNW,11.5,24.2,N/A,,Mostly Cloudy,290,2013-01-22 06:15:00
12:35 AM,-4.0,-14.8,60,30.25,10.0,NW,13.8,19.6,N/A,,Scattered Clouds,310,2013-01-22 06:35:00
12:55 AM,-4.0,-14.8,60,30.25,10.0,NW,11.5,-,N/A,,Clear,310,2013-01-22 06:55:00
1:15 AM,-4.0,-13.0,65,30.26,10.0,WNW,9.2,-,N/A,,Mostly Cloudy,300,2013-01-22 07:15:00
1:55 AM,-4.0,-13.0,65,30.27,7.0,WNW,9.2,-,N/A,,Scattered Clouds,290,2013-01-22 07:55:00
2:15 AM,-5.8,-14.8,65,30.28,10.0,WNW,13.8,-,N/A,,Scattered Clouds,290,2013-01-22 08:15:00
2:35 AM,-5.8,-14.8,65,30.28,10.0,WNW,11.5,-,N/A,,Scattered Clouds,290,2013-01-22 08:35:00
2:55 AM,-5.8,-14.8,65,30.28,10.0,WNW,11.5,-,N/A,,Clear,290,2013-01-22 08:55:00
3:15 AM,-5.8,-14.8,65,30.28,10.0,WNW,9.2,12.7,N/A,,Clear,300,2013-01-22 09:15:00
3:35 AM,-5.8,-16.6,60,30.28,10.0,WNW,12.7,17.3,N/A,,Clear,290,2013-01-22 09:35:00
3:55 AM,-5.8,-14.8,65,30.29,10.0,WNW,13.8,19.6,N/A,,Clear,290,2013-01-22 09:55:00
4:15 AM,-5.8,-14.8,65,30.28,10.0,WNW,8.1,11.5,N/A,,Clear,290,2013-01-22 10:15:00
4:35 AM,-5.8,-16.6,60,30.29,10.0,WNW,10.4,-,N/A,,Clear,300,2013-01-22 10:35:00
4:55 AM,-5.8,-16.6,60,30.29,10.0,WNW,10.4,-,N/A,,Clear,290,2013-01-22 10:55:00
5:15 AM,-5.8,-14.8,65,30.29,10.0,WNW,10.4,-,N/A,,Clear,300,2013-01-22 11:15:00
5:35 AM,-5.8,-16.6,60,30.29,10.0,WNW,10.4,16.1,N/A,,Clear,290,2013-01-22 11:35:00
5:55 AM,-5.8,-16.6,60,30.29,10.0,WNW,9.2,-,N/A,,Clear,300,2013-01-22 11:55:00
6:45 AM,-7.6,-16.6,65,30.31,10.0,WNW,9.2,-,N/A,,Clear,300,2013-01-22 12:45:00
7:45 AM,-5.8,-16.6,60,30.32,10.0,WNW,13.8,-,N/A,,Clear,290,2013-01-22 13:45:00
8:45 AM,-4.0,-14.8,60,30.33,10.0,West,15.0,-,N/A,,Clear,280,2013-01-22 14:45:00
9:45 AM,-2.2,-14.8,55,30.33,10.0,WNW,12.7,19.6,N/A,,Clear,300,2013-01-22 15:45:00
10:45 AM,-0.4,-13.0,55,30.33,10.0,WSW,15.0,-,N/A,,Clear,250,2013-01-22 16:45:00
11:45 AM,1.4,-11.2,56,30.32,10.0,West,12.7,16.1,N/A,,Clear,260,2013-01-22 17:45:00
12:45 PM,5.0,-11.2,47,30.30,10.0,West,15.0,18.4,N/A,,Clear,270,2013-01-22 18:45:00
1:45 PM,5.0,-9.4,52,30.28,10.0,West,13.8,19.6,N/A,,Clear,270,2013-01-22 19:45:00
2:45 PM,6.8,-9.4,48,30.29,10.0,West,13.8,19.6,N/A,,Scattered Clouds,270,2013-01-22 20:45:00
3:45 PM,5.0,-7.6,56,30.30,10.0,West,15.0,20.7,N/A,,Scattered Clouds,280,2013-01-22 21:45:00
4:45 PM,5.0,-7.6,56,30.30,10.0,WNW,13.8,-,N/A,,Clear,290,2013-01-22 22:45:00
5:45 PM,3.2,-7.6,61,30.30,10.0,WNW,11.5,-,N/A,,Clear,290,2013-01-22 23:45:00
6:45 PM,3.2,-7.6,61,30.30,10.0,WNW,8.1,-,N/A,,Clear,290,2013-01-23 00:45:00
7:45 PM,3.2,-7.6,61,30.29,10.0,WNW,8.1,-,N/A,,Clear,290,2013-01-23 01:45:00
8:15 PM,5.0,-7.6,56,30.29,10.0,WNW,10.4,-,N/A,,Clear,300,2013-01-23 02:15:00
8:35 PM,5.0,-7.6,56,30.30,10.0,WNW,10.4,-,N/A,,Clear,290,2013-01-23 02:35:00
8:45 PM,3.2,-7.6,61,30.30,10.0,WNW,9.2,-,N/A,,Clear,290,2013-01-23 02:45:00
8:55 PM,5.0,-7.6,56,30.29,10.0,West,8.1,-,N/A,,Clear,280,2013-01-23 02:55:00
9:15 PM,5.0,-7.6,56,30.29,10.0,WNW,6.9,-,N/A,,Clear,290,2013-01-23 03:15:00
9:35 PM,5.0,-7.6,56,30.30,10.0,WNW,6.9,-,N/A,,Clear,300,2013-01-23 03:35:00
9:55 PM,5.0,-7.6,56,30.31,10.0,WNW,6.9,-,N/A,,Clear,290,2013-01-23 03:55:00
10:15 PM,3.2,-7.6,61,30.31,10.0,West,4.6,-,N/A,,Clear,270,2013-01-23 04:15:00
10:35 PM,3.2,-7.6,61,30.31,10.0,West,4.6,-,N/A,,Clear,270,2013-01-23 04:35:00
10:55 PM,3.2,-7.6,61,30.31,10.0,WNW,5.8,-,N/A,,Clear,290,2013-01-23 04:55:00
11:15 PM,3.2,-7.6,61,30.31,10.0,West,3.5,-,N/A,,Clear,270,2013-01-23 05:15:00
11:35 PM,3.2,-7.6,61,30.30,10.0,West,4.6,-,N/A,,Clear,280,2013-01-23 05:35:00
11:55 PM,3.2,-5.8,66,30.30,10.0,West,4.6,-,N/A,,Clear,260,2013-01-23 05:55:00